Regional Weather Roundup
Issued by NWS Wakefield, VA

Home | Current Version | Previous Version | Graphics & Text | Print | Product List | Glossary On
Versions: 1 2 3 4 5 6 7 8 9 10 11 12 13 14 15 16 17 18 19 20 21 22 23 24 25 26 27 28 29 30 31 32 33 34 35 36 37 38 39 40 41 42 43 44 45 46 47 48 49 50
000
ASUS41 KAKQ 262315
RWRAKQ

REGIONAL WEATHER ROUNDUP
NATIONAL WEATHER SERVICE WAKEFIELD VA
700 PM EDT TUE MAY 26 2015

Note: "fair" indicates few or no clouds below 12,000 feet with no
significant weather and/or obstructions to visibility. * = Denotes
station may not report precipitation (e.g., rain,snow,etc.),
thunder or fog.

VAZ042-051-052>054-056-270000-
NORTHERN VIRGINIA

CITY           SKY/WX    TMP DP  RH WIND       PRES   REMARKS
WASH NATIONAL  PTSUNNY   85  68  56 S12       30.13F
DULLES         PTSUNNY   83  66  56 S10       30.13S
FORT BELVOIR   MOSUNNY   83  68  60 SE5       30.13F
QUANTICO       SUNNY     82  69  64 SW6       30.14F
FREDERICKSBRG* SUNNY     87  69  54 S7        30.13S
STAFFORD*      MOSUNNY   84  64  52 S8        30.18S
WARRENTON      SUNNY     82  70  65 S7        30.14R
CULPEPER*      CLOUDY    82  67  59 S7        30.15R
MANASSAS*      NOT AVBL
LEESBURG*      SUNNY     86  70  58 S15G21    30.13F
WINCHESTER     MOSUNNY   82  61  47 S3        30.13S
FRONT ROYAL*   FAIR      79  68  69 SE3       30.12S
LURAY*         MOCLDY    81  68  65 SW12      30.15S
$$

VAZ048-049-060>072-079>083-270000-
CENTRAL AND SOUTH CENTRAL VIRGINIA

CITY           SKY/WX    TMP DP  RH WIND       PRES   REMARKS
RICHMOND       PTSUNNY   84  65  52 S13       30.16F
CHESTERFIELD*  NOT AVBL
PETERSBURG*    SUNNY     84  71  63 SW7       30.18S
HANOVER        SUNNY     83  66  56 SW12      30.17F
TAPPAHANNOCK*  SUNNY     84  60  44 S8        30.17S
QUINTON*       FAIR      83  67  57 S3        30.16F
CHARLOTTSVILLE MOSUNNY   81  66  60 SW7       30.16R
GORDONSVILLE*  FAIR      82  68  62 S9        30.15R
ORANGE*        MOSUNNY   82  68  61 S6        30.17R
LOUISA*        SUNNY     84  70  61 S6        30.15S
BUMPASS*       FAIR      82  68  61 S7        30.16S
FARMVILLE*     SUNNY     83  66  57 S7        30.16S
CREWE*         FAIR      82  67  60 S5        30.18S
FORT PICKETT*  NOT AVBL
CHASE CITY*    FAIR      85  71  62 SE3       30.18F
CLARKSVILLE*   FAIR      82  68  61 CALM      30.17F
SOUTH HILL*    MOSUNNY   82  67  61 CALM      30.24F
LAWRENCEVILLE* MOCLDY    82  70  65 CALM      30.18F
EMPORIA*       MOSUNNY   82  64  54 CALM      30.20S
$$

VAZ088>098-270000-
SOUTHEAST VIRGINIA

CITY           SKY/WX    TMP DP  RH WIND       PRES   REMARKS
NORFOLK        MOSUNNY   82  65  56 S13       30.19S
VIRGINIA BEACH PTSUNNY   79  68  69 SE16G23   30.19F
NORFOLK NAVAL  MOSUNNY   88  62  41 S7        30.20S
WEST POINT*    SUNNY     86  61  42 S7        30.18F
SALUDA*        FAIR      80  66  63 SE6       30.17F
NEWPORT NEWS   SUNNY     87  64  46 S13       30.18F
LANGLEY AFB    MOSUNNY   83  64  52 S14       30.17F
FORT EUSTIS    SUNNY     82  65  56 S7        30.16F
WILLIAMSBURG*  SUNNY     88  66  48 S7        30.18F
HR EXEC AP*    FAIR      84  64  51 S7        30.20F
FRANKLIN*      SUNNY     84  64  50 S8        30.19S
WAKEFIELD      SUNNY     84  65  52 S6        30.18F
$$

VAZ020-022-025-037-045-270000-
WEST CENTRAL AND SOUTHWEST VIRGINIA

CITY           SKY/WX    TMP DP  RH WIND       PRES   REMARKS
STAUNTON*      LGT RAIN  71  70  96 SW6       30.21S
WAYNESBORO*    CLOUDY    69  68  96 CALM      30.20F
HOT SPRINGS VA CLOUDY    66  64  94 S8        30.29S
LYNCHBURG      MOSUNNY   79  65  62 S9        30.19F
DANVILLE       MOSUNNY   85  65  51 VRB5      30.18S
SOUTH BOSTON*  FAIR      82  67  61 SE3       30.17F
MARTINSVILLE   CLOUDY    82  65  56 S3        30.21S
ROANOKE        PTSUNNY   81  63  54 S12       30.19S
BLACKSBURG     PTSUNNY   78  63  58 SE12      30.25S
DUBLIN*        MOSUNNY   80  64  57 S10G17    30.22F
MARION*        PTSUNNY   79  62  55 S7        30.24S
HILLSVILLE*    SUNNY     75  64  68 S8        30.25F
RICHLANDS*     NOT AVBL
WISE*          MOSUNNY   77  55  47 S10       30.18F
ABINGDON*      PTSUNNY   81  61  51 SW9       30.17S
$$

MDZ021>025-VAZ099-100-270000-
SOUTHERN MARYLAND AND THE DELMARVA PENINSULA

CITY           SKY/WX    TMP DP  RH WIND       PRES   REMARKS
PATUXENT RIVER MOSUNNY   78  64  61 S14       30.16S
BAY BRIDGE APT   N/A    N/A N/A N/A S13       30.15S
LEONARDTOWN    SUNNY     77  63  61 S9        30.17F
DOVER          MOSUNNY   82  69  64 S12       30.14S
GEORGETOWN     SUNNY     77  63  61 S14G22    30.19S
EASTON         MOSUNNY   81  66  61 S15       30.20F
CAMBRIDGE      MOSUNNY   79  63  57 S7G20     30.17S
SALISBURY      SUNNY     76  63  64 S13       30.19F
OCEAN CITY     SUNNY     70  63  78 S9G23     30.22F
WALLOPS ISLAND SUNNY     71  65  81 S20       30.22F
ACCOMACK*      SUNNY     75  68  78 S17G23    30.21S
$$

NCZ012>017-030>032-270000-
NORTH CENTRAL AND EASTERN NORTH CAROLINA

CITY           SKY/WX    TMP DP  RH WIND       PRES   REMARKS
ROANOKE RAPIDS FAIR      82  66  57 S3        30.18S
RALEIGH        PTSUNNY   84  68  58 S8        30.18F
ELIZABETH CITY MOSUNNY   78  66  66 S15G22    30.23S
AHOSKIE*       MOSUNNY   81  68  64 SE9       30.20R
EDENTON*         N/A     78  68  71 S16G22    30.22S
CURRITUCK*     SUNNY     78  64  61 S9        30.23S
KILL DEVIL HLS SUNNY     75  65  69 S10G16    30.24S
MANTEO         MOSUNNY   75  66  72 S17G25    30.26S
CAPE HATTERAS  SUNNY     76  63  64 S17       30.26F
TARBORO*       MOCLDY    84  68  58 S10G16    30.20R
GOLDSBORO      PTSUNNY   81  70  69 S13G20    30.19S
WASHINGTON     PTSUNNY   79  68  69 S13G20    30.22S
GREENVILLE     MOSUNNY   81  70  69 S14       30.22R
NEW BERN       MOSUNNY   78  67  68 S10       30.26S
WILMINGTON     CLOUDY    77  69  76 SE13G23   30.24S
$$

VAZ048-270000-
ELSEWHERE

CITY           SKY/WX    TMP DP  RH WIND       PRES   REMARKS
HARRISBURG PA  PTSUNNY   84  64  50 S6        30.10F
BALTIMORE      PTSUNNY   81  67  62 SE7       30.12F
ANNAPOLIS      MOSUNNY   75  64  68 S15G21    30.14F
ANDREWS AFB    MOSUNNY   82  67  58 S10       30.13F
PHILADELPHIA   PTSUNNY   85  63  47 SW13      30.14S
HENDERSON NC   MOSUNNY   84  62  47 S6        30.19S
GREENSBORO     PTSUNNY   82  62  50 S9        30.19R
ROCKY MOUNT    MOSUNNY   83  69  62 S8        30.19S
$$

VAZ100-270000-
MARINE

STATION/POSITION TIME  TEMP    WIND        PRES    WAVE   SWELL
                       AIR SEA DIR/SP/G            HT/PER HT/PER
                 (UTC) (F)     (DEG/KT/KT) (MB)    (FT/S) (FT/S)
BRANDYWINE LGT   2200   67 65  180/ 22/ 24 1021.8F
CAPE MAY NJ      2200   69 70  170/ 15/ 22 1022.1F
LEWES DE         2200   78 64  180/ 11/ 18 1022.0F
15NM E FENWICK I 2250   66 62              1022.9F   3/ 4
OCEAN-CITY-INLET 2200   65 67  210/ 10/ 12 1023.3F
WACHAPREAGUE VA  2200   74 77  190/ 16/ 21 1023.1F
THOMAS POINT MD  2300   73 68  170/ 24/ 27 1021.0F
GOOSES REEF MD   2300   72 68  170/ 17/ 21 1022.0F   2/ 3
COVE POINT MD    2200   72     190/ 21/ 24 1022.3F
SOLOMONS ISLAND  2200      73                N/A
BISHOPS HEAD MD  2200   74 77  160/ 18/ 22 1021.8F
PINEY POINT MD   2200          160/ 17/ 18   N/A
CAMBRIDGE MD     2200   80 71  180/  7/ 14 1021.7F
LEWISETTA VA     2200   78 75              1021.3F
RAPPAHANNOCK LGT 2200          150/ 18/ 19 1023.1F
STINGRAY PT      2300   73 71  160/ 17/ 19 1022.1F   2/ 3
YORK RVR RNG VA  2200   74     150/ 16/ 18 1021.6F
YORKTOWN VA      2200   83 72  190/  9/ 12 1021.8F
JAMESTOWN VA     2200   82 75  200/  8/ 10 1021.0F
DOMINION TERM VA 2200   80     210/  8/ 10 1022.5F
KIPTOPEKE VA     2200      77  170/ 20/ 25   N/A
CHES BAY BRIDGE  2200   76 67  120/  7/ 12 1022.1F
CAPE HENRY VA    2200   73     140/ 12/ 16 1021.6F
CHESAPEAKE LGHT  2200   69     170/ 28/ 29 1023.2F
WILLOUBY STN VA  2200   83     230/ 10/ 11 1023.1F
CAPE HENRY BUOY  2228      66                N/A     4/ 5
1ST LANDING BUOY 2300      69              1022.0F
CAPE CHARLES BUO 2226      67                N/A     3/ 4   2/ 8
OFFSHORE WE BUOY 2211      67                N/A     3/ 5   2/ 7
64NM E OF VA BCH 2250   68 64  170/ 12/ 14 1024.5F   3/ 5   2/ 5
DUCK PIER NC     2200   74 62  160/ 21/ 23 1022.8F
44100 DUCK FRF   2224      65                N/A     3/ 5
44056 DUCK FRF   2211      63                N/A     3/ 6
OREGON INLET NC  2200   76 79  160/ 13/ 20 1024.9F
HATTERAS NC      2200   76 76  160/ 14/ 19 1024.8F
DIAMOND SHLS NC  2250   75 77  160/ 17/ 19 1025.0F   3/ 6   2/ 7
CAPE LOOKOUT NC  2300   74     150/ 15/ 16 1024.6S
$$


USA.gov is the U.S. government's official web portal to all federal, state and local government web resources and services.